This is the latest recevied weather packets stored in our database for station/object KE5OYL. If no packets are shown the sender has not sent any weather packets the latest 10 day(s).
| Time | Temp. | Humidity | Pressure | Rain* | Wind** | Luminosity | Snow |
|---|---|---|---|---|---|---|---|
| 1788631112 | 36.11° C | 43% | 1014.9 hPa | 0 mm | - | 789 W/m² | - |
| 1788630806 | 35.56° C | 45% | 1014.7 hPa | 0 mm | - | 787 W/m² | - |
| 1788630501 | 34.44° C | 46% | 1014.5 hPa | 0 mm | - | 168 W/m² | - |
| 1788630197 | 35° C | 46% | 1014.9 hPa | 0 mm | - | 764 W/m² | - |
| 1788629893 | 35.56° C | 44% | 1015.1 hPa | 0 mm | - | 755 W/m² | - |
| 1788629589 | 34.44° C | 46% | 1014.8 hPa | 0 mm | - | 752 W/m² | - |
| 1788629289 | 35° C | 46% | 1015.1 hPa | 0 mm | - | 749 W/m² | - |
| 1788628987 | 34.44° C | 47% | 1014.9 hPa | 0 mm | - | 734 W/m² | - |
| 1788628683 | 34.44° C | 47% | 1015.2 hPa | 0 mm | - | 728 W/m² | - |
| 1788628380 | 34.44° C | 47% | 1015.2 hPa | 0 mm | - | 726 W/m² | - |
| 1788628076 | 35° C | 45% | 1015.2 hPa | 0 mm | - | 720 W/m² | - |
| 1788627802 | 35° C | 46% | 1015.1 hPa | 0 mm | - | 705 W/m² | - |
| 1788627470 | 34.44° C | 48% | 1015.3 hPa | 0 mm | - | 696 W/m² | - |
| 1788627166 | 34.44° C | 47% | 1015.3 hPa | 0 mm | - | 682 W/m² | - |
| 1788626866 | 33.89° C | 47% | 1015.4 hPa | 0 mm | - | 676 W/m² | - |
| 1788626561 | 35° C | 49% | 1015.1 hPa | 0 mm | - | 672 W/m² | - |
| 1788626256 | 33.89° C | 51% | 1015.4 hPa | 0 mm | - | 656 W/m² | - |
| 1788625973 | 34.44° C | 52% | 1015.5 hPa | 0 mm | - | 650 W/m² | - |
| 1788625649 | 33.89° C | 52% | 1015.2 hPa | 0 mm | - | 647 W/m² | - |
| 1788625348 | 32.78° C | 54% | 1015.4 hPa | 0 mm | - | 617 W/m² | - |
| 1788625043 | 32.22° C | 56% | 1015.4 hPa | 0 mm | - | 608 W/m² | - |
| 1788624741 | 32.78° C | 54% | 1015.3 hPa | 0 mm | - | 591 W/m² | - |
| 1788624440 | 33.89° C | 53% | 1015.4 hPa | 0 mm | - | 584 W/m² | - |
| 1788624140 | 32.78° C | 55% | 1015.4 hPa | 0 mm | - | 581 W/m² | - |
| 1788623834 | 32.22° C | 57% | 1015.2 hPa | 0 mm | - | 565 W/m² | - |
* Rain latest hour (hover to see other rain measurements)
** Current wind speed in m/s (hover to see current wind gust speed)